Vertical_Velocity
-1 7 8 -6 1 -2 6 7 2 -11 -3 8 -1 -3 -2 -1 -4 -6 -2 -3 -5 -2 -2 1 1 2 2 -1 -1 -4 0 1 -3 -1 -2 -0 0 -2 -1 -0 -0 -1 -1 -2 -3 -0 -1 -1 -1
-2 2 1 -15 6 -5 -9 1 4 -2 -9 -11 -2 -1 6 -0 -5 -3 3 -3 -4 -3 -1 3 -1 1 1 -2 1 -2 1 3 -0 -1 -2 1 -0 0 -1 -1 -3 -2 -1 -2 -1 -1 0 -3 -0
-1 14 7 2 -6 -4 -19 6 4 -10 -16 -11 -5 -3 4 -1 1 -4 2 1 -0 -3 1 1 0 0 -2 0 0 -1 -2 1 0 -3 0 1 -1 -1 0 -1 -2 -1 -2 -1 -1 -0 1 -2 -1
-0 3 6 -2 -16 1 -9 7 10 15 -11 -7 -3 2 1 1 5 -3 3 0 -1 -0 1 0 1 -2 -1 1 -1 1 -2 -2 -2 -1 0 1 1 -0 -1 -1 0 -0 -1 -0 -0 -1 -0 -1 -0
5 3 1 2 -5 -18 2 1 12 -8 8 -6 2 -10 -0 2 -7 1 0 2 -3 2 3 1 1 -2 1 -2 1 -1 1 -3 -2 -1 1 0 -1 0 -1 -0 1 -1 -1 0 -1 1 0 -1 -2
10 -2 5 -8 -9 3 -0 -3 5 5 3 2 -0 2 -2 4 -4 0 1 -2 1 2 0 -1 -1 0 2 -1 -2 1 -0 -4 -1 -1 0 0 0 0 0 1 1 0 -1 0 -1 1 -0 -3 1
-3 3 -8 0 3 -4 1 0 -3 10 -0 -6 -5 -0 -2 0 -4 -2 -0 3 -2 1 -2 -0 -0 -0 1 -2 -1 -0 -1 -4 -1 1 1 2 1 -1 -1 0 -0 1 -2 0 -1 0 -1 -1 -1
4 6 -3 -7 2 -21 2 2 1 -3 10 5 5 -16 -6 0 -3 -0 -0 6 -1 -5 1 1 -1 0 1 -3 -1 -1 -3 -0 0 1 1 -0 -1 2 -0 0 1 -0 -2 -2 -0 0 -1 -2 -2
5 -0 -12 -15 3 -12 1 -3 -1 6 6 -3 -1 2 11 -2 -0 -2 1 4 -4 -2 4 0 -0 0 -1 -5 -0 -1 -2 1 2 1 1 -0 -1 -1 0 1 -2 -1 -3 -2 -2 -2 -0 -3 -1
-0 -3 -15 10 6 -5 13 7 2 5 8 -3 -2 -5 -10 4 -0 -0 2 2 -1 1 5 -1 0 -1 -2 -5 -0 -1 0 2 1 1 0 0 1 0 -2 -1 -2 -2 -1 -2 -1 -1 -0 -1 0
2 -30 10 -6 4 5 0 -0 2 1 -7 -13 -4 3 1 3 1 -1 3 2 1 4 -3 -1 -1 -1 -2 -2 -0 -1 1 2 1 -1 0 0 1 2 -0 -1 -2 -0 -1 -1 -2 -3 -3 -1 0
-15 -5 -1 3 8 0 -0 6 -5 1 -6 8 5 3 -4 1 -4 4 5 -2 4 1 0 -3 -0 -3 -0 -2 -1 1 1 1 0 0 1 1 -0 -2 0 -0 -2 -1 -2 -3 -1 -1 -2 -1 -3
-18 -0 -6 4 7 2 2 -6 2 -14 7 -1 -1 -3 -1 -0 5 -1 -2 -1 -5 -3 -2 0 -2 -0 -1 -2 0 2 0 1 1 -0 1 0 -0 0 -2 -1 -1 -2 -1 0 -1 -1 -0 1 -1
7 0 -0 0 -1 -6 -7 3 6 2 16 0 -1 0 2 0 4 -0 -4 -3 -3 2 2 1 1 1 -2 -0 0 2 1 0 -1 1 2 0 -0 -0 -1 -1 -1 -1 -1 -1 -2 -1 0 -0 -1
2 -3 4 -3 -2 -5 4 -8 -34 18 6 1 -0 3 -0 2 -4 -2 4 -1 1 4 0 1 0 3 1 1 0 1 1 -0 0 2 1 -0 -0 -0 -1 -0 -0 1 -1 -2 -1 -1 -2 -1 -1
1 6 -2 -0 3 -2 16 -39 -4 6 -1 1 -4 -3 -1 -1 4 5 2 2 -2 -1 1 1 1 1 0 2 1 2 0 1 3 1 1 0 -0 -1 -1 -1 -2 -3 -2 -2 -2 -2 -1 -0 -0
-0 -10 -4 -0 -1 4 -3 -4 5 0 3 1 -5 -0 2 3 -2 -1 2 2 -0 5 1 2 0 -0 0 1 1 2 1 2 3 -0 0 -1 0 -0 -1 -2 -2 -3 -2 -2 -2 -3 -3 -3 -1
-14 -4 -7 -15 -11 2 -0 -12 3 2 -1 6 1 -0 1 -0 -1 3 2 1 1 4 2 0 0 0 1 1 -0 1 1 2 2 2 0 1 -0 -0 -1 -1 -2 -2 -2 -3 -3 -3 -4 -5 -5
25 6 -1 0 6 11 -2 -13 1 9 -5 -1 -1 1 -3 -5 17 4 3 3 2 -0 -0 1 1 3 0 0 -1 1 3 0 -0 -0 1 1 -0 -1 0 -1 -2 -2 -2 -2 -2 -1 -3 -4 -3
14 4 -11 0 9 7 5 -18 -1 -2 -8 -7 -0 -6 -7 2 -1 2 -1 -1 -3 4 5 1 4 1 -0 0 4 0 0 1 -0 0 2 -0 0 -0 -1 -1 -1 -1 -1 -2 -3 -3 -3 -3 -8
2 -6 -1 -1 1 10 4 -22 -8 0 -2 1 -5 -3 -3 -9 -1 -0 -4 1 2 -0 2 5 5 3 1 3 1 -1 -0 0 1 3 0 -1 0 -0 -0 -1 -1 -1 -2 -2 -2 -3 -3 -3 -3
1 10 10 9 16 -6 3 -20 -12 1 -8 -9 -7 -0 -5 -1 1 -1 -1 -3 2 6 6 4 3 2 2 2 -0 0 4 1 3 0 -0 0 0 -0 -0 -0 -0 -1 -2 -2 -3 -3 -4 -4 -4
-22 3 5 8 1 20 6 8 -40 -4 -12 -2 -12 -9 -9 -1 2 -3 -3 6 7 1 4 7 4 2 3 1 1 1 1 1 1 1 -0 -0 0 -0 -0 -0 -0 -1 -1 -2 -2 -3 -4 -4 -3
20 14 6 8 12 7 -7 3 -12 -25 -14 -13 -2 -4 -3 -1 -0 3 4 -1 1 3 2 2 3 2 3 3 5 4 3 3 2 1 0 1 -0 0 -0 -0 -1 -0 -2 -2 -2 -3 -2 -2 -3
16 9 0 1 4 -9 -3 16 -39 2 -7 -8 -5 -2 6 2 -5 -2 -3 -8 -3 -1 2 3 1 2 3 2 1 2 2 3 1 -0 1 -1 -1 0 0 -1 -2 -3 -2 -2 -2 -2 -2 -2 -2
-19 -13 -15 -7 -3 -5 0 -7 -41 -18 -4 -10 -10 -1 -3 -1 -0 -5 0 -0 3 2 3 2 1 1 1 3 3 1 1 1 1 2 -1 -1 0 0 -0 -1 -1 -1 -1 -1 -2 -1 -3 -2 -3
-7 -2 -10 4 2 -1 -5 -0 -14 -8 -3 -6 -6 -6 -1 1 -0 1 2 -0 3 -3 0 2 2 3 1 1 0 0 2 2 2 0 1 1 1 0 -1 0 -1 -1 -1 -2 -2 -2 -2 -3 -3
-6 -4 3 8 -1 -0 -2 -1 -8 -5 -7 -3 -3 -5 -4 -1 -1 -1 0 1 2 0 2 1 3 4 5 2 0 2 4 2 2 2 2 2 1 -0 0 -0 -1 -1 -1 -1 -2 -2 -3 -1 -3
5 9 15 5 1 -4 -2 -14 -24 -18 -12 -6 1 2 4 4 0 2 2 2 0 2 -1 4 3 1 2 2 2 1 1 2 2 2 1 0 1 -0 0 -1 -1 -2 -1 -1 -1 -2 -2 -2 -1
16 0 -1 -0 -10 2 1 -23 -1 -1 -3 -5 3 6 2 2 2 -0 3 3 3 1 1 1 -0 3 3 1 -0 -0 1 2 1 1 2 -1 1 1 -0 0 -0 -1 -1 -2 -1 -2 -3 -2 -1
Height
3133 3132 3131 3131 3139 3133 3127 3128 3130 3130 3131 3132 3133 3134 3136 3136 3134 3138 3136 3138 3140 3141 3142 3142 3143 3144 3145 3147 3147 3147 3148 3148 3148 3148 3149 3149 3149 3148 3148 3148 3147 3147 3147 3146 3146 3145 3145 3144 3144
3132 3131 3131 3131 3134 3131 3128 3128 3129 3129 3129 3131 3134 3135 3135 3134 3132 3134 3136 3137 3139 3140 3139 3140 3141 3142 3143 3145 3145 3145 3147 3146 3146 3147 3146 3147 3147 3146 3146 3145 3145 3144 3144 3143 3143 3142 3142 3142 3141
3132 3130 3130 3131 3127 3125 3123 3127 3128 3131 3129 3130 3131 3132 3133 3133 3132 3133 3134 3136 3136 3137 3137 3139 3140 3141 3141 3143 3143 3143 3145 3145 3144 3145 3144 3145 3145 3144 3144 3143 3143 3142 3142 3141 3141 3140 3139 3139 3138
3128 3129 3129 3127 3123 3122 3124 3126 3129 3129 3128 3129 3128 3131 3130 3130 3129 3132 3133 3134 3134 3134 3135 3137 3137 3139 3139 3140 3140 3141 3142 3143 3143 3143 3143 3143 3142 3142 3142 3142 3141 3141 3140 3139 3138 3138 3137 3137 3136
3125 3125 3126 3123 3122 3117 3119 3121 3124 3126 3126 3124 3126 3125 3127 3126 3126 3129 3129 3131 3132 3132 3132 3134 3135 3137 3137 3138 3138 3139 3140 3140 3141 3141 3141 3141 3140 3140 3140 3140 3140 3139 3138 3137 3136 3134 3134 3133 3133
3119 3121 3119 3117 3114 3114 3115 3117 3120 3121 3120 3123 3123 3123 3124 3123 3124 3125 3126 3128 3128 3129 3130 3132 3133 3134 3134 3135 3137 3137 3138 3138 3139 3140 3140 3139 3138 3138 3138 3137 3136 3136 3135 3134 3133 3132 3131 3131 3129
3115 3115 3114 3113 3109 3110 3113 3116 3115 3115 3117 3119 3120 3119 3119 3120 3121 3122 3123 3124 3125 3126 3127 3129 3130 3130 3131 3133 3134 3135 3136 3137 3138 3138 3138 3137 3136 3136 3135 3135 3134 3133 3133 3132 3130 3129 3128 3127 3127
3112 3111 3108 3106 3106 3107 3111 3111 3110 3112 3115 3115 3115 3114 3117 3117 3116 3119 3120 3121 3121 3123 3124 3125 3126 3127 3129 3132 3132 3133 3134 3135 3136 3136 3135 3134 3135 3134 3134 3133 3132 3131 3130 3129 3127 3126 3125 3124 3122
3107 3105 3101 3100 3102 3104 3108 3109 3109 3109 3110 3110 3110 3112 3112 3112 3113 3114 3116 3117 3117 3119 3120 3122 3123 3124 3127 3129 3130 3131 3132 3133 3133 3133 3133 3133 3133 3132 3132 3130 3129 3128 3127 3126 3124 3123 3121 3120 3119
3100 3098 3092 3097 3101 3104 3105 3104 3105 3106 3105 3105 3105 3106 3107 3107 3108 3109 3111 3113 3114 3115 3116 3118 3119 3122 3125 3126 3127 3128 3130 3130 3130 3130 3131 3131 3130 3129 3129 3127 3126 3125 3124 3123 3121 3119 3117 3115 3113
3092 3085 3090 3093 3097 3098 3099 3098 3100 3099 3097 3097 3101 3102 3101 3102 3101 3103 3106 3109 3110 3111 3112 3115 3117 3119 3122 3123 3124 3125 3126 3126 3127 3128 3129 3127 3127 3127 3126 3124 3123 3121 3120 3118 3116 3115 3112 3110 3108
3087 3083 3085 3087 3091 3092 3092 3093 3093 3092 3093 3097 3098 3097 3096 3095 3097 3099 3101 3103 3105 3106 3109 3111 3113 3116 3117 3118 3120 3121 3122 3123 3124 3125 3124 3124 3124 3123 3122 3120 3118 3117 3116 3114 3112 3110 3107 3105 3102
3078 3079 3082 3084 3086 3086 3086 3085 3086 3084 3089 3089 3090 3090 3091 3092 3092 3094 3096 3096 3099 3102 3105 3107 3109 3111 3112 3114 3116 3117 3118 3119 3120 3120 3121 3120 3120 3119 3118 3116 3114 3113 3112 3110 3107 3104 3101 3098 3096
3072 3073 3074 3075 3076 3077 3077 3077 3078 3076 3083 3081 3081 3082 3084 3086 3088 3088 3089 3092 3095 3098 3100 3103 3104 3106 3107 3109 3111 3113 3114 3115 3115 3115 3115 3116 3115 3114 3112 3111 3110 3108 3106 3103 3100 3097 3094 3091 3088
3064 3064 3065 3064 3067 3067 3070 3064 3061 3070 3074 3073 3073 3074 3076 3079 3080 3082 3086 3087 3090 3094 3095 3097 3099 3101 3102 3104 3106 3108 3109 3110 3110 3110 3111 3111 3110 3109 3108 3106 3104 3101 3098 3095 3091 3088 3085 3082 3080
3055 3056 3055 3053 3058 3059 3062 3045 3057 3062 3063 3063 3065 3067 3068 3071 3074 3077 3079 3082 3084 3086 3089 3091 3092 3094 3097 3099 3101 3102 3103 3104 3104 3105 3105 3106 3105 3104 3102 3100 3097 3094 3091 3087 3083 3080 3077 3073 3071
3045 3041 3042 3045 3049 3052 3052 3041 3050 3054 3055 3057 3058 3059 3061 3064 3066 3069 3072 3075 3077 3080 3082 3084 3086 3089 3091 3093 3094 3096 3097 3098 3100 3100 3101 3100 3099 3098 3096 3094 3091 3087 3083 3079 3075 3071 3068 3064 3061
3027 3029 3031 3034 3040 3042 3040 3034 3045 3048 3049 3051 3052 3052 3053 3055 3059 3063 3065 3068 3070 3073 3075 3077 3079 3081 3083 3085 3087 3089 3091 3092 3094 3094 3095 3094 3093 3091 3089 3087 3084 3080 3076 3072 3069 3066 3060 3054 3050
3022 3024 3024 3027 3033 3036 3031 3027 3033 3040 3039 3041 3044 3046 3047 3049 3055 3054 3056 3058 3061 3065 3067 3069 3072 3073 3075 3078 3081 3083 3086 3087 3088 3088 3089 3088 3086 3084 3083 3080 3077 3074 3070 3066 3062 3058 3054 3047 3039
3013 3015 3016 3022 3026 3026 3025 3018 3024 3028 3030 3032 3035 3038 3040 3043 3044 3047 3048 3050 3053 3057 3061 3063 3065 3066 3069 3072 3076 3078 3079 3080 3081 3082 3082 3081 3080 3078 3076 3074 3070 3067 3063 3059 3054 3049 3045 3040 3031
3003 3004 3011 3016 3018 3019 3019 3011 3012 3017 3020 3024 3025 3028 3031 3033 3036 3038 3039 3041 3044 3047 3051 3055 3057 3060 3062 3066 3068 3070 3071 3074 3075 3076 3075 3074 3073 3072 3070 3067 3063 3060 3056 3052 3047 3041 3035 3031 3024
2995 3002 3008 3013 3016 3012 3016 2999 2998 3003 3006 3011 3016 3018 3020 3021 3023 3025 3027 3030 3034 3038 3043 3047 3050 3052 3055 3058 3060 3062 3066 3068 3069 3069 3068 3068 3067 3065 3063 3060 3056 3053 3049 3044 3040 3034 3028 3022 3016
2984 3001 3003 3008 3009 3008 3005 3004 2984 2994 2993 2999 3005 3009 3011 3012 3013 3014 3017 3021 3027 3030 3034 3039 3042 3043 3047 3050 3053 3055 3059 3061 3062 3062 3062 3061 3060 3058 3056 3053 3050 3046 3041 3037 3032 3027 3021 3015 3009
2986 2992 2997 2999 3001 2998 2992 2998 2974 2984 2985 2992 2997 2999 3002 3002 3004 3006 3010 3013 3015 3020 3024 3028 3033 3035 3039 3042 3045 3048 3052 3054 3056 3056 3055 3054 3053 3051 3049 3046 3043 3039 3035 3030 3026 3021 3015 3009 3001
2977 2985 2993 2999 2996 2982 2987 2990 2958 2976 2979 2982 2987 2989 2991 2992 2994 2996 2999 3002 3005 3009 3014 3020 3024 3027 3031 3035 3038 3042 3045 3048 3049 3049 3048 3048 3046 3044 3042 3039 3036 3032 3028 3024 3019 3014 3008 3001 2994
2961 2971 2974 2984 2984 2978 2984 2964 2955 2966 2972 2975 2978 2980 2981 2983 2985 2987 2991 2994 2999 3004 3008 3012 3016 3021 3024 3028 3030 3034 3038 3040 3041 3042 3042 3041 3040 3038 3036 3033 3029 3025 3021 3017 3013 3007 3001 2994 2986
2955 2962 2959 2968 2970 2973 2964 2957 2959 2961 2962 2965 2968 2971 2973 2976 2979 2981 2984 2988 2992 2997 3001 3005 3009 3014 3018 3021 3024 3027 3030 3033 3034 3035 3035 3034 3033 3032 3030 3026 3023 3018 3014 3010 3006 3000 2994 2987 2979
2943 2949 2960 2963 2966 2962 2954 2952 2951 2953 2956 2959 2960 2964 2967 2969 2971 2974 2977 2982 2987 2991 2995 2998 3002 3007 3011 3014 3017 3020 3023 3026 3027 3028 3028 3028 3027 3026 3023 3020 3016 3012 3007 3003 2998 2993 2986 2979 2972
2933 2936 2944 2948 2950 2950 2954 2944 2948 2950 2953 2954 2956 2958 2960 2962 2965 2968 2971 2976 2980 2984 2987 2992 2995 2999 3003 3006 3009 3013 3016 3019 3021 3022 3022 3021 3020 3019 3016 3012 3008 3005 3001 2996 2991 2985 2979 2971 2964
2925 2928 2932 2937 2941 2942 2941 2937 2942 2945 2947 2950 2951 2953 2955 2956 2958 2962 2966 2969 2972 2977 2981 2985 2989 2994 2998 3001 3004 3007 3010 3013 3015 3015 3015 3015 3013 3012 3008 3005 3001 2998 2993 2989 2984 2979 2972 2964 2957